Location: Tehachapi Municipal Airport
(35.1300°N, 118.4400°W)
Time: 21:22:25
(UTC-07:00)

BREEZE M DEB (TANK) - Visible Passes

Search period start: 24 July 2016 00:00
Search period end: 03 August 2016 00:00
Orbit: 292 x 12027 km, 49.6° (Epoch: 23 July)

Date Brightness Start Highest point End Pass type
(mag) Time Alt. Az. Time Alt. Az. Time Alt. Az.
24 Jul 9.0 19:09:33 10° NW 19:54:33 18° W 20:35:06 10° WSW visible
26 Jul 6.7 04:48:31 10° SE 04:57:20 23° E 05:19:35 10° NE visible
27 Jul 7.0 04:09:24 10° ESE 04:14:56 13° E 04:23:25 10° ENE visible
31 Jul 6.1 05:04:58 10° S 05:13:53 40° ESE 05:47:25 10° NE visible
01 Aug 6.3 04:22:33 10° SSE 04:30:47 27° E 04:53:54 10° NE visible
02 Aug 6.6 03:41:45 10° ESE 03:48:08 15° E 03:59:53 10° ENE visible
